Ypsilanti, MI

4:24 AM EST on January 20, 2018 (GMT -0500)
Willow Run

Weather History for KYIP - July, 2013

Change the Weather History Date:

Monday, July 22, 2013

  Actual Average Record
Temperature  
Mean Temperature 78 °F -  
Max Temperature 84 °F 83 °F 97 °F (2011)
Min Temperature 71 °F 62 °F 48 °F (2000)
Cooling Degree Days 13    
Growing Degree Days 28 (Base 50)    
Moisture  
Dew Point 66 °F    
Average Humidity 71    
Maximum Humidity 84    
Minimum Humidity 53    
Precipitation  
Precipitation 0.01 in - - ()
Sea Level Pressure  
Sea Level Pressure 29.86 in    
Wind  
Wind Speed 4 mph (SE)    
Max Wind Speed 9 mph    
Max Gust Speed -    
Visibility 10 miles    
Events Rain    
Averages and records for this station are not official NWS values.
T = Trace of Precipitation, MM = Missing Value Source: NWS Daily Summary

Daily Weather History Graph

Daily Weather History Graph

Search for Another Location

Airport or City:

Trip Planner

Search our weather history database for the weather conditions in past years. The results will help you decide how hot, cold, wet, or windy it might be!

Date:

Astronomy

Jul. 22, 2013 Rise Set
Actual Time 6:17 AM EDT 9:03 PM EDT
Civil Twilight 5:44 AM EDT 9:35 PM EDT
Nautical Twilight 5:03 AM EDT 10:16 PM EDT
Astronomical Twilight 4:15 AM EDT 11:04 PM EDT
Moon 8:46 PM EDT (7/22) 6:13 AM EDT (7/22)
Length of Visible Light 15h 51m
Length of Day
14h 45m
Full, 100% of the Moon is Illuminated
Jul 22
Full
Jul 22
Full
Jul 29
Last Quarter
Aug 6
New
Aug 14
First Quarter

Hourly Weather History & Observations

Time (EDT) Temp. Heat Index Dew Point Humidity Pressure Visibility Wind Dir Wind Speed Gust Speed Precip Events Conditions
12:53 AM 73.9 °F - 66.0 °F 76% 29.95 in 10.0 mi East 4.6 mph - N/A   Clear
1:53 AM 73.0 °F - 66.0 °F 79% 29.94 in 10.0 mi ENE 3.5 mph - N/A   Clear
2:53 AM 73.0 °F - 64.9 °F 76% 29.93 in 10.0 mi Calm Calm - 0.00 in   Clear
3:53 AM 72.0 °F - 64.9 °F 78% 29.91 in 10.0 mi NE 4.6 mph - 0.00 in Rain Light Rain
4:53 AM 73.0 °F - 64.9 °F 76% 29.91 in 10.0 mi ENE 3.5 mph - 0.00 in   Scattered Clouds
5:53 AM 73.0 °F - 66.0 °F 79% 29.90 in 9.0 mi Calm Calm - 0.00 in Rain Light Rain
6:53 AM 72.0 °F - 66.0 °F 81% 29.89 in 10.0 mi Calm Calm - 0.01 in   Scattered Clouds
7:53 AM 73.0 °F - 66.9 °F 81% 29.88 in 10.0 mi East 9.2 mph - 0.00 in   Partly Cloudy
8:53 AM 75.9 °F - 68.0 °F 76% 29.88 in 10.0 mi ESE 5.8 mph - N/A   Mostly Cloudy
9:53 AM 75.9 °F - 68.0 °F 76% 29.87 in 10.0 mi ESE 6.9 mph - N/A   Partly Cloudy
10:53 AM 77.0 °F - 68.0 °F 74% 29.88 in 10.0 mi SE 9.2 mph - N/A   Clear
11:53 AM 78.1 °F - 66.9 °F 68% 29.88 in 10.0 mi SSE 8.1 mph - N/A   Clear
12:53 PM 78.1 °F - 66.0 °F 66% 29.88 in 10.0 mi SSE 4.6 mph - 0.00 in Rain Light Rain
1:53 PM 78.1 °F - 64.9 °F 64% 29.87 in 10.0 mi ESE 5.8 mph - N/A   Scattered Clouds
2:53 PM 79.0 °F - 64.9 °F 62% 29.85 in 10.0 mi ESE 4.6 mph - N/A   Clear
3:53 PM 80.1 °F 82.1 °F 66.0 °F 62% 29.84 in 10.0 mi Calm Calm - N/A   Clear
4:53 PM 81.0 °F 82.7 °F 64.9 °F 58% 29.82 in 10.0 mi Calm Calm - N/A   Clear
5:53 PM 84.0 °F 85.8 °F 64.9 °F 53% 29.80 in 10.0 mi Calm Calm - N/A   Clear
6:53 PM 82.0 °F 83.8 °F 64.9 °F 56% 29.78 in 10.0 mi South 5.8 mph - N/A   Mostly Cloudy
7:53 PM 80.1 °F 82.1 °F 66.0 °F 62% 29.78 in 10.0 mi South 4.6 mph - N/A   Clear
8:53 PM 75.9 °F - 64.9 °F 69% 29.77 in 10.0 mi South 5.8 mph - N/A   Clear
9:53 PM 73.9 °F - 64.9 °F 73% 29.79 in 10.0 mi South 3.5 mph - N/A   Clear
10:53 PM 72.0 °F - 64.0 °F 76% 29.79 in 9.0 mi South 3.5 mph - N/A   Clear
11:53 PM 71.1 °F - 66.0 °F 84% 29.79 in 8.0 mi South 5.8 mph - N/A   Clear